Weather in Zonalnoye

Russia / Sakhalin District     50°39′48″N   142°45′20″E
temp.,
°C
wind,
m/s
gust,
m/s
humid.,
%
clouds,
%
prec.,
mm/h
press.,
hPa
HPBL,
m
13 may, thu
thu1323:00+3sse387526 0.0 1018264
02:000se2687100 0.0 1018153
05:00−1se3789100 0.0 1017184
08:00+3sse3776100 0.0 1015301
11:00+4s3784100 0.1 1014585
14:00+4sse3790100 0.0 1013639
17:00+6s4882100 0.1 1012753
20:00+3sse3894100 0.0 1012636
14 may, fri
fri1423:00+2sse2798100 0.2 1013433
02:00+2sse2598100 0.0 1012309
05:00+2sse2598100 0.0 1011258
08:00+3sse2497100 0.0 1012196
11:00+4s2394100 0.0 1012222
14:00+11ssw126786 0.0 1011723
17:00+9ssw2277100 0.1 1011314
20:00+7se018997 0.0 101325
15 may, sat
sat1523:00+7se119183 0.0 101413
02:00+5sse269713 0.0 1014177
05:00+3sse259836 0.0 1014138
08:00+4sse4895100 0.0 1014314
11:00+6sse51081100 0.0 1011518
14:00+7s61277100 0.0 1008579
17:00+5sse51282100 0.0 1006656
20:00+4sse51495100 4.1 1003846
16 may, sun
sun1623:00+3sse51297100 9.9 1002541
02:00+4sse51198100 0.1 999505
05:00+4sse51198100 0.1 997511
08:00+5s4119396 3.0 997830
11:00+8sw4980100 3.3 9971247
14:00+10sw6967100 0.7 9961558
17:00+7wnw5107299 1.4 9981359
20:00+6wnw296814 0.0 10001367
17 may, mon
mon1723:00+2wsw118564 0.0 100210
02:00+2sse118660 0.0 100214
05:00+2w118999 0.0 100314
08:00+4wnw147268 0.0 1004814
11:00+8nw355674 0.0 10031251
14:00+10nw455023 0.0 10021361
17:00+10nnw46485 0.0 10021293
20:00+9nne23590 0.0 1002123